Location: Newark
(33.6439°N, 114.9881°W)
Time: 09:17:23
(UTC+00:00)

Tiros 1 - Pass Details

Date: 23 July 2019
Orbit: 630 x 664 km, 48.4° (Epoch: 21 August)

Event Time Altitude Azimuth Distance (km) Brightness Sun altitude
Rises 16:29:26 0° 182° (S) 2,952 10.6 44.4°
Reaches altitude 10° 16:32:59 10° 155° (SSE) 2,054 10.2 45.2°
Maximum altitude 16:35:08 13° 127° (SE) 1,863 10.4 45.6°
Drops below altitude 10° 16:37:18 10° 100° (E) 2,067 10.8 46.1°
Sets 16:40:52 0° 73° (ENE) 2,988 11.2 46.8°
